COSMOS 2251 DEB, 38060

Orbit data source: Space-Track

COSMOS 2251 DEB, 38060 is space debris in LEO originally from a launch on Wed, 16 Jun 1993 UTC launched from the Plesetsk Missile And Space Complex (PKMTR). The debris from Iridium 33, an American commercial communications satellite, has been tracked extensively since its accidental collision with the defunct Russian satellite Cosmos 2251 in 2009. This event, occurring at high speed in low Earth orbit (LEO), generated thousands of pieces of space debris, significantly increasing the risk of further collisions. The Iridium 33 debris cloud has impacted space traffic management and orbital debris mitigation strategies, making it a subject of ongoing study in space situational awareness.

Loading next visibility...
Identifier
38060, 1993-036BRS
Orbit
LEO
Country
Flag of CISCIS
Related business
Manufacturer
Unknown
Mission
Spacecraft
Bus & Motor
Unknown
Mass
Unknown
Launch date (UTC)
1993-06-16 (33 years ago)
Launch vehicle
Unknown
Launch site
Plesetsk Missile And Space Complex (PKMTR)
Object type
Payload
Rocket body
Debris
Shape & HBR
Unknown shape, 0.1 m
Radar Cross Section
Small (<0.1 m²)

Expand to show TLE details & history
Last TLE update: 23 hours ago

TLE from 23 hours ago
0 COSMOS 2251 DEB
1 38060U 93036BRS 26237.48141339  .00001260  00000-0  23539-3 0  9995
2 38060  74.0420 163.9323 0059533 206.8177 152.9911 14.64941436757086
Epoch: 2026-08-25T11:33Z
TLE epoch observation values (Epoch: 2026-08-25T11:33:14.116Z)
Latitude
-0.00007°
Longitude
16.87532°
Altitude
717.389 km
Speed
7.477 km/s
True Right ascension
10h 55m 43s
True Declination
0° 00' 00"
Sunlit
Object was in daylight at epoch
Visualization orbit readout
Latitude
Unknown
Longitude
Unknown
Altitude
Unknown
Speed
Unknown
Apparent Right ascension
Unknown
Apparent Declination
Unknown
Sunlit
N/A
Visualization observer readout
Local Sidereal Time
01:30:15
Azimuth
Unknown
Elevation
Unknown
Doppler factor
Unknown
Orbital elements
Apogee altitude
716.843 km
Perigee altitude
632.866 km
Semi-major axis
7,052.992 km
Eccentricity
0.00595
Inclination
74.042°
RAAN
163.9323°
Arg. of periapsis
206.8177°
True anomaly
153.29886°
Mean anomaly
152.9911°
Eccentric anomaly
153.14519°
Mean motion
3.66423 °/min
Orbital period
98.25 mins
BSTAR
0.00023539
Loading maneuver chart data...
Computing Atmospheric mass density...

Documentation

Showing up to 5 results
|